����������;��������(kWh)
2015-07-27 00:00;96,05
2015-07-27 00:15;80,9
2015-07-27 00:30;82,05
2015-07-27 00:45;80
2015-07-27 01:00;73,9
2015-07-27 01:15;73,8
2015-07-27 01:30;75
2015-07-27 01:45;81,35
2015-07-27 02:00;74,05
2015-07-27 02:15;75,3
2015-07-27 02:30;73,5
2015-07-27 02:45;73,55
2015-07-27 03:00;83,8
2015-07-27 03:15;72,75
2015-07-27 03:30;75
2015-07-27 03:45;76,35
2015-07-27 04:00;74,4
2015-07-27 04:15;79,4
2015-07-27 04:30;72,85
2015-07-27 04:45;73,35
2015-07-27 05:00;76,9
2015-07-27 05:15;78,55
2015-07-27 05:30;88,25
2015-07-27 05:45;79,7
2015-07-27 06:00;78,2
2015-07-27 06:15;75,85
2015-07-27 06:30;74,1
2015-07-27 06:45;76,75
2015-07-27 07:00;80,6
2015-07-27 07:15;79,05
2015-07-27 07:30;78,55
2015-07-27 07:45;121,45
2015-07-27 08:00;189,8
2015-07-27 08:15;187,2
2015-07-27 08:30;176,4
2015-07-27 08:45;138,95
2015-07-27 09:00;171,2
2015-07-27 09:15;156,45
2015-07-27 09:30;180,15
2015-07-27 09:45;195,5
2015-07-27 10:00;200,65
2015-07-27 10:15;214,05
2015-07-27 10:30;207,5
2015-07-27 10:45;216,85
2015-07-27 11:00;223,85
2015-07-27 11:15;233,65
2015-07-27 11:30;228,55
2015-07-27 11:45;231
2015-07-27 12:00;245,55
2015-07-27 12:15;255,75
2015-07-27 12:30;247,85
2015-07-27 12:45;242,6
2015-07-27 13:00;243,85
2015-07-27 13:15;257,45
2015-07-27 13:30;242,3
2015-07-27 13:45;247,45
2015-07-27 14:00;243,95
2015-07-27 14:15;236,55
2015-07-27 14:30;226,6
2015-07-27 14:45;222,15
2015-07-27 15:00;217,9
2015-07-27 15:15;215,9
2015-07-27 15:30;196,8
2015-07-27 15:45;182,35
2015-07-27 16:00;183,85
2015-07-27 16:15;176
2015-07-27 16:30;153,65
2015-07-27 16:45;147,3
2015-07-27 17:00;146,95
2015-07-27 17:15;142,1
2015-07-27 17:30;133,85
2015-07-27 17:45;129,4
2015-07-27 18:00;128,45
2015-07-27 18:15;124,65
2015-07-27 18:30;114,6
2015-07-27 18:45;110,6
2015-07-27 19:00;112,65
2015-07-27 19:15;123,55
2015-07-27 19:30;116
2015-07-27 19:45;108,65
2015-07-27 20:00;108,5
2015-07-27 20:15;109,85
2015-07-27 20:30;105,65
2015-07-27 20:45;95,5
2015-07-27 21:00;96,1
2015-07-27 21:15;95,2
2015-07-27 21:30;102,1
2015-07-27 21:45;94,9
2015-07-27 22:00;96,9
2015-07-27 22:15;91,65
2015-07-27 22:30;94,05
2015-07-27 22:45;90,9
2015-07-27 23:00;91,35
2015-07-27 23:15;101,55
2015-07-27 23:30;96,65
2015-07-27 23:45;106,85
2015-07-28 00:00;96,55
2015-07-28 00:15;86,25
2015-07-28 00:30;82,8
2015-07-28 00:45;84,65
2015-07-28 01:00;86,25
2015-07-28 01:15;84,05
2015-07-28 01:30;82,35
2015-07-28 01:45;79,7
2015-07-28 02:00;88,3
2015-07-28 02:15;80,7
2015-07-28 02:30;80,05
2015-07-28 02:45;78,7
2015-07-28 03:00;77,1
2015-07-28 03:15;87,45
2015-07-28 03:30;80,35
2015-07-28 03:45;86,4
2015-07-28 04:00;90,85
2015-07-28 04:15;86,7
2015-07-28 04:30;89,8
2015-07-28 04:45;82,8
2015-07-28 05:00;86,15
2015-07-28 05:15;90,6
2015-07-28 05:30;92,45
2015-07-28 05:45;89,55
2015-07-28 06:00;88,25
2015-07-28 06:15;88,85
2015-07-28 06:30;81,25
2015-07-28 06:45;80,1
2015-07-28 07:00;76,7
2015-07-28 07:15;81,25
2015-07-28 07:30;84,5
2015-07-28 07:45;128,85
2015-07-28 08:00;192,3
2015-07-28 08:15;188,1
2015-07-28 08:30;174,7
2015-07-28 08:45;153,15
2015-07-28 09:00;181,5
2015-07-28 09:15;177,65
2015-07-28 09:30;181,55
2015-07-28 09:45;208,9
2015-07-28 10:00;207,05
2015-07-28 10:15;215,75
2015-07-28 10:30;227,1
2015-07-28 10:45;230,5
2015-07-28 11:00;241,85
2015-07-28 11:15;248,2
2015-07-28 11:30;247,7
2015-07-28 11:45;269,4
2015-07-28 12:00;258,9
2015-07-28 12:15;255
2015-07-28 12:30;272,65
2015-07-28 12:45;256,8
2015-07-28 13:00;248,2
2015-07-28 13:15;255,45
2015-07-28 13:30;256,2
2015-07-28 13:45;247,35
2015-07-28 14:00;250,35
2015-07-28 14:15;249,45
2015-07-28 14:30;245,9
2015-07-28 14:45;235,75
2015-07-28 15:00;225,3
2015-07-28 15:15;225
2015-07-28 15:30;194,75
2015-07-28 15:45;184,75
2015-07-28 16:00;179
2015-07-28 16:15;170,7
2015-07-28 16:30;156,6
2015-07-28 16:45;153,95
2015-07-28 17:00;162,65
2015-07-28 17:15;162,85
2015-07-28 17:30;145,65
2015-07-28 17:45;141,35
2015-07-28 18:00;144,15
2015-07-28 18:15;145,15
2015-07-28 18:30;128,65
2015-07-28 18:45;123
2015-07-28 19:00;119,4
2015-07-28 19:15;126,7
2015-07-28 19:30;118,4
2015-07-28 19:45;119,25
2015-07-28 20:00;116,8
2015-07-28 20:15;115,85
2015-07-28 20:30;114,6
2015-07-28 20:45;100,95
2015-07-28 21:00;102,75
2015-07-28 21:15;104,65
2015-07-28 21:30;98,2
2015-07-28 21:45;96,5
2015-07-28 22:00;95,05
2015-07-28 22:15;97,1
2015-07-28 22:30;89,95
2015-07-28 22:45;91,7
2015-07-28 23:00;89,7
2015-07-28 23:15;103,6
2015-07-28 23:30;95,6
2015-07-28 23:45;98,2
2015-07-29 00:00;107,85
2015-07-29 00:15;85,6
2015-07-29 00:30;88,45
2015-07-29 00:45;90,7
2015-07-29 01:00;86
2015-07-29 01:15;83,1
2015-07-29 01:30;84,7
2015-07-29 01:45;90,15
2015-07-29 02:00;83,3
2015-07-29 02:15;82,85
2015-07-29 02:30;82,4
2015-07-29 02:45;80,1
2015-07-29 03:00;86,75
2015-07-29 03:15;82,75
2015-07-29 03:30;82,75
2015-07-29 03:45;79,9
2015-07-29 04:00;83,4
2015-07-29 04:15;91,2
2015-07-29 04:30;92,9
2015-07-29 04:45;91
2015-07-29 05:00;89,1
2015-07-29 05:15;92,95
2015-07-29 05:30;86,95
2015-07-29 05:45;85,3
2015-07-29 06:00;83,95
2015-07-29 06:15;83,85
2015-07-29 06:30;84,8
2015-07-29 06:45;79,05
2015-07-29 07:00;81,25
2015-07-29 07:15;85,8
2015-07-29 07:30;88,8
2015-07-29 07:45;133,7
2015-07-29 08:00;183,45
2015-07-29 08:15;130,8
2015-07-29 08:30;139,95
2015-07-29 08:45;152,8
2015-07-29 09:00;159,1
2015-07-29 09:15;161,05
2015-07-29 09:30;172,05
2015-07-29 09:45;186,35
2015-07-29 10:00;194,35
2015-07-29 10:15;190,5
2015-07-29 10:30;194,25
2015-07-29 10:45;214,65
2015-07-29 11:00;227,15
2015-07-29 11:15;230,75
2015-07-29 11:30;238
2015-07-29 11:45;244,85
2015-07-29 12:00;237,65
2015-07-29 12:15;247,7
2015-07-29 12:30;234
2015-07-29 12:45;245,3
2015-07-29 13:00;236,1
2015-07-29 13:15;239,95
2015-07-29 13:30;239,5
2015-07-29 13:45;236,8
2015-07-29 14:00;234,7
2015-07-29 14:15;238,45
2015-07-29 14:30;246,55
2015-07-29 14:45;244,4
2015-07-29 15:00;245,4
2015-07-29 15:15;228,85
2015-07-29 15:30;207,8
2015-07-29 15:45;194
2015-07-29 16:00;191,2
2015-07-29 16:15;190,8
2015-07-29 16:30;157,7
2015-07-29 16:45;151,75
2015-07-29 17:00;156,05
2015-07-29 17:15;151,25
2015-07-29 17:30;143,55
2015-07-29 17:45;136,75
2015-07-29 18:00;140,75
2015-07-29 18:15;135,1
2015-07-29 18:30;127,65
2015-07-29 18:45;124,35
2015-07-29 19:00;131,8
2015-07-29 19:15;124,75
2015-07-29 19:30;114,65
2015-07-29 19:45;113,55
2015-07-29 20:00;118,55
2015-07-29 20:15;112,6
2015-07-29 20:30;110,65
2015-07-29 20:45;99,8
2015-07-29 21:00;102,75
2015-07-29 21:15;93,5
2015-07-29 21:30;94,15
2015-07-29 21:45;92,65
2015-07-29 22:00;100,7
2015-07-29 22:15;90,2
2015-07-29 22:30;88,75
2015-07-29 22:45;90,3
2015-07-29 23:00;93,95
2015-07-29 23:15;96
2015-07-29 23:30;89,1
2015-07-29 23:45;94,75
2015-07-30 00:00;99,55
2015-07-30 00:15;89,6
2015-07-30 00:30;84,35
2015-07-30 00:45;84,65
2015-07-30 01:00;83,2
2015-07-30 01:15;91,6
2015-07-30 01:30;83,8
2015-07-30 01:45;81,75
2015-07-30 02:00;79,4
2015-07-30 02:15;82,3
2015-07-30 02:30;87,45
2015-07-30 02:45;79,6
2015-07-30 03:00;79,45
2015-07-30 03:15;80,95
2015-07-30 03:30;87,4
2015-07-30 03:45;81,1
2015-07-30 04:00;80,45
2015-07-30 04:15;81,7
2015-07-30 04:30;79,9
2015-07-30 04:45;87,75
2015-07-30 05:00;83,75
2015-07-30 05:15;86,5
2015-07-30 05:30;86,25
2015-07-30 05:45;85,9
2015-07-30 06:00;87,1
2015-07-30 06:15;79,8
2015-07-30 06:30;75,9
2015-07-30 06:45;72,2
2015-07-30 07:00;78,9
2015-07-30 07:15;85,2
2015-07-30 07:30;92,6
2015-07-30 07:45;124,5
2015-07-30 08:00;190,4
2015-07-30 08:15;148,6
2015-07-30 08:30;139,15
2015-07-30 08:45;148,55
2015-07-30 09:00;155,3
2015-07-30 09:15;168,6
2015-07-30 09:30;171,35
2015-07-30 09:45;174,35
2015-07-30 10:00;186,65
2015-07-30 10:15;196,2
2015-07-30 10:30;198,35
2015-07-30 10:45;216,35
2015-07-30 11:00;216,65
2015-07-30 11:15;226,55
2015-07-30 11:30;236
2015-07-30 11:45;230,25
2015-07-30 12:00;239,5
2015-07-30 12:15;233,05
2015-07-30 12:30;233,45
2015-07-30 12:45;229,9
2015-07-30 13:00;244,75
2015-07-30 13:15;236,55
2015-07-30 13:30;235,4
2015-07-30 13:45;239,5
2015-07-30 14:00;230
2015-07-30 14:15;237,7
2015-07-30 14:30;222,6
2015-07-30 14:45;229,7
2015-07-30 15:00;228,7
2015-07-30 15:15;211,05
2015-07-30 15:30;193,45
2015-07-30 15:45;192,05
2015-07-30 16:00;180
2015-07-30 16:15;164,05
2015-07-30 16:30;151,05
2015-07-30 16:45;148,05
2015-07-30 17:00;139,05
2015-07-30 17:15;139,3
2015-07-30 17:30;138,2
2015-07-30 17:45;131,8
2015-07-30 18:00;126,55
2015-07-30 18:15;124,3
2015-07-30 18:30;127,4
2015-07-30 18:45;117,1
2015-07-30 19:00;111,35
2015-07-30 19:15;116,3
2015-07-30 19:30;115,25
2015-07-30 19:45;112,5
2015-07-30 20:00;113,45
2015-07-30 20:15;109,7
2015-07-30 20:30;108,3
2015-07-30 20:45;98,9
2015-07-30 21:00;95,65
2015-07-30 21:15;96,85
2015-07-30 21:30;96,65
2015-07-30 21:45;103,8
2015-07-30 22:00;95,85
2015-07-30 22:15;95,65
2015-07-30 22:30;94,7
2015-07-30 22:45;96,7
2015-07-30 23:00;90,2
2015-07-30 23:15;95,35
2015-07-30 23:30;91,7
2015-07-30 23:45;96,3
2015-07-31 00:00;107,35
2015-07-31 00:15;85,9
2015-07-31 00:30;85,45
2015-07-31 00:45;84,05
2015-07-31 01:00;89,25
2015-07-31 01:15;82,45
2015-07-31 01:30;81,35
2015-07-31 01:45;80,45
2015-07-31 02:00;80,9
2015-07-31 02:15;90,25
2015-07-31 02:30;81,2
2015-07-31 02:45;83,15
2015-07-31 03:00;85,1
2015-07-31 03:15;82,75
2015-07-31 03:30;90,75
2015-07-31 03:45;82,35
2015-07-31 04:00;82,65
2015-07-31 04:15;82,35
2015-07-31 04:30;85,05
2015-07-31 04:45;86,2
2015-07-31 05:00;81,75
2015-07-31 05:15;82,65
2015-07-31 05:30;89,05
2015-07-31 05:45;91,8
2015-07-31 06:00;89,95
2015-07-31 06:15;85,65
2015-07-31 06:30;81,05
2015-07-31 06:45;79
2015-07-31 07:00;85
2015-07-31 07:15;82,9
2015-07-31 07:30;85
2015-07-31 07:45;125,45
2015-07-31 08:00;193,8
2015-07-31 08:15;151,5
2015-07-31 08:30;141
2015-07-31 08:45;139,4
2015-07-31 09:00;145,9
2015-07-31 09:15;157,95
2015-07-31 09:30;168,9
2015-07-31 09:45;178,9
2015-07-31 10:00;190,4
2015-07-31 10:15;211,8
2015-07-31 10:30;229,9
2015-07-31 10:45;231,25
2015-07-31 11:00;223,75
2015-07-31 11:15;235,45
2015-07-31 11:30;238,55
2015-07-31 11:45;237,85
2015-07-31 12:00;238,05
2015-07-31 12:15;246,4
2015-07-31 12:30;239,3
2015-07-31 12:45;243,05
2015-07-31 13:00;244,15
2015-07-31 13:15;243,65
2015-07-31 13:30;239,05
2015-07-31 13:45;246,9
2015-07-31 14:00;248,7
2015-07-31 14:15;230,7
2015-07-31 14:30;239,6
2015-07-31 14:45;236,3
2015-07-31 15:00;227,7
2015-07-31 15:15;217,4
2015-07-31 15:30;205,45
2015-07-31 15:45;203,05
2015-07-31 16:00;181,55
2015-07-31 16:15;171,1
2015-07-31 16:30;174,65
2015-07-31 16:45;163,2
2015-07-31 17:00;144,35
2015-07-31 17:15;138,1
2015-07-31 17:30;142,15
2015-07-31 17:45;136,95
2015-07-31 18:00;127,6
2015-07-31 18:15;120,75
2015-07-31 18:30;126,6
2015-07-31 18:45;116,6
2015-07-31 19:00;114,9
2015-07-31 19:15;113,05
2015-07-31 19:30;113,15
2015-07-31 19:45;104,2
2015-07-31 20:00;100,95
2015-07-31 20:15;100,95
2015-07-31 20:30;105,65
2015-07-31 20:45;91,25
2015-07-31 21:00;93,15
2015-07-31 21:15;90,45
2015-07-31 21:30;98,95
2015-07-31 21:45;89,95
2015-07-31 22:00;92,75
2015-07-31 22:15;89,25
2015-07-31 22:30;99,65
2015-07-31 22:45;89,7
2015-07-31 23:00;88,3
2015-07-31 23:15;94,25
2015-07-31 23:30;96,55
2015-07-31 23:45;93,5
2015-08-01 00:00;93,9
2015-08-01 00:15;81,15
2015-08-01 00:30;82,4
2015-08-01 00:45;83,45
2015-08-01 01:00;77,2
2015-08-01 01:15;78,45
2015-08-01 01:30;78,6
2015-08-01 01:45;85
2015-08-01 02:00;76,35
2015-08-01 02:15;76,9
2015-08-01 02:30;76,6
2015-08-01 02:45;83,5
2015-08-01 03:00;80,2
2015-08-01 03:15;76,75
2015-08-01 03:30;76,4
2015-08-01 03:45;76,75
2015-08-01 04:00;83,3
2015-08-01 04:15;75,55
2015-08-01 04:30;72,65
2015-08-01 04:45;75,8
2015-08-01 05:00;79
2015-08-01 05:15;77,55
2015-08-01 05:30;74,35
2015-08-01 05:45;74,15
2015-08-01 06:00;72,35
2015-08-01 06:15;78,5
2015-08-01 06:30;71,05
2015-08-01 06:45;67,5
2015-08-01 07:00;68,25
2015-08-01 07:15;74
2015-08-01 07:30;73,45
2015-08-01 07:45;94,55
2015-08-01 08:00;89,65
2015-08-01 08:15;86,3
2015-08-01 08:30;87,95
2015-08-01 08:45;83,65
2015-08-01 09:00;81,5
2015-08-01 09:15;82,05
2015-08-01 09:30;92,55
2015-08-01 09:45;85
2015-08-01 10:00;86,35
2015-08-01 10:15;88,25
2015-08-01 10:30;92,65
2015-08-01 10:45;88,5
2015-08-01 11:00;89,35
2015-08-01 11:15;88,4
2015-08-01 11:30;97,9
2015-08-01 11:45;90,55
2015-08-01 12:00;90
2015-08-01 12:15;93,15
2015-08-01 12:30;97,9
2015-08-01 12:45;88,4
2015-08-01 13:00;87,8
2015-08-01 13:15;92,7
2015-08-01 13:30;98,35
2015-08-01 13:45;93,8
2015-08-01 14:00;93,3
2015-08-01 14:15;90,15
2015-08-01 14:30;102,95
2015-08-01 14:45;90,35
2015-08-01 15:00;91,55
2015-08-01 15:15;91,6
2015-08-01 15:30;103,5
2015-08-01 15:45;93,15
2015-08-01 16:00;87,75
2015-08-01 16:15;93,15
2015-08-01 16:30;96,9
2015-08-01 16:45;89,7
2015-08-01 17:00;94,15
2015-08-01 17:15;96,65
2015-08-01 17:30;100,3
2015-08-01 17:45;94,5
2015-08-01 18:00;91,95
2015-08-01 18:15;91,65
2015-08-01 18:30;95,65
2015-08-01 18:45;84
2015-08-01 19:00;83,15
2015-08-01 19:15;89,25
2015-08-01 19:30;96,95
2015-08-01 19:45;83,5
2015-08-01 20:00;84,5
2015-08-01 20:15;82,6
2015-08-01 20:30;89,15
2015-08-01 20:45;81,25
2015-08-01 21:00;85,9
2015-08-01 21:15;82,55
2015-08-01 21:30;81,05
2015-08-01 21:45;87,15
2015-08-01 22:00;78,35
2015-08-01 22:15;80,3
2015-08-01 22:30;83,2
2015-08-01 22:45;88,2
2015-08-01 23:00;90,4
2015-08-01 23:15;91,2
2015-08-01 23:30;89
2015-08-01 23:45;84,75
2015-08-02 00:00;96,05
2015-08-02 00:15;79,3
2015-08-02 00:30;76,35
2015-08-02 00:45;78
2015-08-02 01:00;72,5
2015-08-02 01:15;84,35
2015-08-02 01:30;76,9
2015-08-02 01:45;74,2
2015-08-02 02:00;75
2015-08-02 02:15;75,1
2015-08-02 02:30;79,95
2015-08-02 02:45;73,7
2015-08-02 03:00;73,05
2015-08-02 03:15;75,5
2015-08-02 03:30;74,6
2015-08-02 03:45;75,4
2015-08-02 04:00;72,85
2015-08-02 04:15;74,05
2015-08-02 04:30;74,65
2015-08-02 04:45;77,95
2015-08-02 05:00;73,2
2015-08-02 05:15;73
2015-08-02 05:30;75,2
2015-08-02 05:45;74,25
2015-08-02 06:00;77,75
2015-08-02 06:15;70,6
2015-08-02 06:30;70,5
2015-08-02 06:45;64,8
2015-08-02 07:00;67,15
2015-08-02 07:15;71,9
2015-08-02 07:30;66,05
2015-08-02 07:45;67,2
2015-08-02 08:00;64,25
2015-08-02 08:15;73,15
2015-08-02 08:30;69,45
2015-08-02 08:45;67,1
2015-08-02 09:00;69,5
2015-08-02 09:15;72
2015-08-02 09:30;78,95
2015-08-02 09:45;70,85
2015-08-02 10:00;72,4
2015-08-02 10:15;71,3
2015-08-02 10:30;82,9
2015-08-02 10:45;71,7
2015-08-02 11:00;71,55
2015-08-02 11:15;76,25
2015-08-02 11:30;85,75
2015-08-02 11:45;79,25
2015-08-02 12:00;76,35
2015-08-02 12:15;77,3
2015-08-02 12:30;83,4
2015-08-02 12:45;77,5
2015-08-02 13:00;77
2015-08-02 13:15;79,8
2015-08-02 13:30;76,7
2015-08-02 13:45;77
2015-08-02 14:00;77,3
2015-08-02 14:15;76,3
2015-08-02 14:30;77,8
2015-08-02 14:45;77,45
2015-08-02 15:00;81,05
2015-08-02 15:15;82,4
2015-08-02 15:30;78
2015-08-02 15:45;77,65
2015-08-02 16:00;76,3
2015-08-02 16:15;77,05
2015-08-02 16:30;76
2015-08-02 16:45;75,95
2015-08-02 17:00;82,05
2015-08-02 17:15;82
2015-08-02 17:30;78,35
2015-08-02 17:45;78,75
2015-08-02 18:00;78,95
2015-08-02 18:15;79,25
2015-08-02 18:30;81,35
2015-08-02 18:45;77,65
2015-08-02 19:00;85,5
2015-08-02 19:15;93,15
2015-08-02 19:30;87,4
2015-08-02 19:45;78,35
2015-08-02 20:00;77,15
2015-08-02 20:15;78,4
2015-08-02 20:30;79,5
2015-08-02 20:45;80,9
2015-08-02 21:00;91,15
2015-08-02 21:15;84,6
2015-08-02 21:30;83,8
2015-08-02 21:45;81
2015-08-02 22:00;81,25
2015-08-02 22:15;84,5
2015-08-02 22:30;79,65
2015-08-02 22:45;82,05
2015-08-02 23:00;81,15
2015-08-02 23:15;87,35
2015-08-02 23:30;81,7
2015-08-02 23:45;84,75

